This is the latest recevied weather packets stored in our database for station/object KC9DRE. If no packets are shown the sender has not sent any weather packets the latest 10 day(s).
| Time | Temp. | Humidity | Pressure | Rain* | Wind** | Luminosity | Snow |
|---|---|---|---|---|---|---|---|
| 1788052163 | 20.56° C | 93% | 1019.3 hPa | 0 mm | - | 0 W/m² | - |
| 1788051859 | 20.56° C | 93% | 1019.4 hPa | 0 mm | - | 0 W/m² | - |
| 1788051559 | 20.56° C | 92% | 1019.2 hPa | 0 mm | - | 0 W/m² | - |
| 1788051257 | 21.11° C | 92% | 1019.2 hPa | 0 mm | - | 0 W/m² | - |
| 1788050956 | 21.11° C | 92% | 1019.1 hPa | 0 mm | - | 0 W/m² | - |
| 1788050652 | 21.67° C | 91% | 1019.2 hPa | 0 mm | - | 0 W/m² | - |
| 1788050351 | 21.67° C | 89% | 1019.1 hPa | 0 mm | - | 0 W/m² | - |
| 1788050050 | 22.22° C | 89% | 1019.1 hPa | 0 mm | - | 0 W/m² | - |
| 1788049748 | 22.22° C | 87% | 1019.1 hPa | 0 mm | - | 1 W/m² | - |
| 1788049444 | 22.78° C | 87% | 1019.3 hPa | 0 mm | - | 1 W/m² | - |
| 1788049139 | 23.33° C | 86% | 1019.2 hPa | 0 mm | - | 3 W/m² | - |
| 1788048834 | 23.33° C | 85% | 1019.2 hPa | 0 mm | - | 6 W/m² | - |
| 1788048529 | 23.89° C | 84% | 1019.2 hPa | 0 mm | - | 10 W/m² | - |
| 1788048227 | 23.89° C | 84% | 1019.3 hPa | 0 mm | - | 18 W/m² | - |
| 1788047924 | 24.44° C | 82% | 1019.1 hPa | 0 mm | - | 28 W/m² | - |
| 1788047619 | 24.44° C | 81% | 1019.2 hPa | 0 mm | - | 31 W/m² | - |
| 1788047318 | 25° C | 80% | 1019.3 hPa | 0 mm | - | 31 W/m² | - |
| 1788047014 | 25° C | 79% | 1019.3 hPa | 0 mm | - | 33 W/m² | - |
| 1788046713 | 25.56° C | 79% | 1019.5 hPa | 0 mm | - | 36 W/m² | - |
| 1788046408 | 25.56° C | 78% | 1019.4 hPa | 0 mm | - | 44 W/m² | - |
| 1788046105 | 26.11° C | 77% | 1019.4 hPa | 0 mm | - | 53 W/m² | - |
| 1788045801 | 26.11° C | 76% | 1019.3 hPa | 0 mm | - | 58 W/m² | - |
| 1788045496 | 26.11° C | 76% | 1019.2 hPa | 0 mm | - | 61 W/m² | - |
| 1788045192 | 26.11° C | 75% | 1019.3 hPa | 0 mm | - | 70 W/m² | - |
| 1788044887 | 26.11° C | 74% | 1019.3 hPa | 0 mm | - | 82 W/m² | - |
* Rain latest hour (hover to see other rain measurements)
** Current wind speed in m/s (hover to see current wind gust speed)